CST,Max TemperatureF,Mean TemperatureF,Min TemperatureF,Max Dew PointF,MeanDew PointF,Min DewpointF,Max Humidity, Mean Humidity, Min Humidity, Max Sea Level PressureIn, Mean Sea Level PressureIn, Min Sea Level PressureIn, Max VisibilityMiles, Mean VisibilityMiles, Min VisibilityMiles, Max Wind SpeedMPH, Mean Wind SpeedMPH, Max Gust SpeedMPH,PrecipitationIn, CloudCover, Events, WindDirDegrees
2012-12-1,66,52,37,54,45,37,100,89,63,30.13,30.09,29.97,10,5,0,18,5,,0.00,2,Fog,163
2012-12-2,71,63,55,62,58,52,99,82,67,30.04,30.01,29.96,10,10,10,14,10,23,0.00,4,,199
2012-12-3,70,65,60,62,59,56,99,84,66,30.03,29.97,29.90,10,10,10,24,12,32,0.00,3,,185
2012-12-4,62,50,37,59,50,37,100,91,57,30.30,30.11,29.95,10,9,5,14,8,20,0.10,6,Rain,324
2012-12-5,54,44,33,39,36,31,100,79,52,30.39,30.29,30.18,10,9,4,10,2,,0.00,0,,45
2012-12-6,49,40,30,44,39,30,99,89,72,30.16,30.03,29.95,10,9,5,7,2,,0.00,4,,112
2012-12-7,58,50,42,55,49,43,100,97,77,29.94,29.88,29.81,10,8,1,7,2,,0.00,7,Fog-Rain,251
2012-12-8,50,46,42,50,46,41,100,96,87,30.00,29.94,29.87,10,10,4,12,6,,0.05,8,Rain,337
2012-12-9,51,46,40,52,47,35,100,99,80,29.95,29.84,29.78,10,5,0,18,5,22,0.13,8,Fog-Rain-Thunderstorm,315
2012-12-10,38,33,28,33,23,19,82,74,63,30.09,29.97,29.88,10,10,10,20,16,,0.00,7,,298
2012-12-11,41,30,20,23,21,18,98,71,38,30.25,30.16,30.10,10,10,10,14,6,,0.00,0,,208
2012-12-12,49,35,21,28,24,21,99,72,36,30.38,30.31,30.25,10,10,10,9,3,,0.00,0,,171
2012-12-13,52,38,24,30,27,24,100,73,35,30.36,30.29,30.21,10,10,9,14,5,,0.00,0,,176
2012-12-14,54,40,26,39,32,26,98,72,44,30.25,30.15,30.00,10,10,10,10,3,,0.00,2,Rain,166
2012-12-15,59,51,43,53,48,37,100,93,72,29.98,29.79,29.62,10,9,5,23,12,32,0.44,6,Rain,176
2012-12-16,52,46,39,50,44,37,100,94,73,29.77,29.72,29.67,10,8,1,8,3,,0.00,1,,237
2012-12-17,42,40,39,43,40,34,100,98,81,29.82,29.71,29.67,10,6,1,12,6,,0.00,8,Rain,354
2012-12-18,56,43,30,39,35,30,100,80,48,29.93,29.80,29.68,10,10,9,18,6,25,0.00,1,,194
2012-12-19,53,41,29,49,37,28,100,86,76,30.03,29.86,29.56,10,10,8,14,5,20,0.00,5,Rain,97
2012-12-20,54,41,28,54,39,18,100,86,64,29.94,29.50,29.26,10,8,2,36,18,51,5.07,7,Rain-Snow-Thunderstorm,229
2012-12-21,37,30,23,18,15,14,70,56,39,30.32,30.19,29.97,10,10,10,29,20,37,0.00,0,,292
2012-12-22,44,32,19,29,20,15,91,65,36,30.32,30.18,29.98,10,10,10,13,5,,0.00,0,,171
2012-12-23,52,40,29,34,31,27,94,75,43,29.98,29.92,29.86,10,7,2,9,5,,0.00,1,,27
2012-12-24,37,30,23,33,29,17,100,87,75,30.16,29.93,29.81,10,7,4,21,7,,0.00,7,,328
2012-12-25,35,29,23,27,23,17,86,74,65,30.27,30.14,29.97,10,10,10,21,10,28,0.00,7,,14
2012-12-26,33,30,28,27,25,22,86,77,71,30.18,30.00,29.86,10,9,5,26,18,32,0.00,8,Snow,337
2012-12-27,33,30,27,25,23,21,85,77,65,30.23,30.16,30.10,10,10,10,9,6,,0.00,6,,119
2012-12-28,37,32,28,33,31,25,100,96,75,30.09,29.96,29.91,10,4,1,9,3,,0.26,8,Snow,126
2012-12-29,32,23,14,32,25,12,100,89,64,30.38,30.13,29.91,10,8,3,18,2,23,0.00,6,Snow,306
2012-12-30,33,22,11,26,18,10,100,87,74,30.48,30.39,30.27,10,9,6,12,2,,0.00,0,,182
2012-12-31,35,33,31,34,32,24,100,96,71,30.25,30.14,30.09,10,3,1,10,4,,0.12,8,Rain-Snow,202